Hourly Weather Kozubow

Today, 31 October, Saturday

Time Temperature Precipitation Wind Pressure Humidity
00:00 +9°C° 0 mm 1 mps 754 mmHg 94%
01:00 +9°C° 0 mm 1 mps 754 mmHg 94%
02:00 +9°C° 0 mm 1 mps 755 mmHg 94%
03:00 +9°C° 0 mm 1 mps 755 mmHg 95%
04:00 +7°C° 0 mm 2 mps 756 mmHg 95%
05:00 +7°C° 0 mm 2 mps 756 mmHg 95%
06:00 +8°C° 0 mm 1 mps 756 mmHg 95%
07:00 +7°C° 0 mm 1 mps 757 mmHg 95%
08:00 +8°C° 0 mm 1 mps 757 mmHg 90%
09:00 +10°C° 0 mm 1 mps 757 mmHg 84%
10:00 +10°C° 0 mm 0 mps 758 mmHg 79%
11:00 +10°C° 0 mm 0 mps 758 mmHg 75%
12:00 +11°C° 0 mm 0 mps 758 mmHg 71%
13:00 +12°C° 0 mm 0 mps 758 mmHg 67%
14:00 +11°C° 0 mm 0 mps 758 mmHg 70%
15:00 +12°C° 0 mm 1 mps 758 mmHg 72%
16:00 +11°C° 0 mm 1 mps 758 mmHg 74%
17:00 +10°C° 0 mm 1 mps 758 mmHg 76%
18:00 +9°C° 0 mm 2 mps 758 mmHg 78%
19:00 +8°C° 0 mm 2 mps 758 mmHg 80%
20:00 +8°C° 0 mm 2 mps 758 mmHg 81%
21:00 +7°C° 0 mm 2 mps 758 mmHg 82%
22:00 +7°C° 0 mm 3 mps 758 mmHg 83%
23:00 +7°C° 0 mm 3 mps 758 mmHg 84%

Tomorrow, 1 November, Sunday

Time Temperature Precipitation Wind Pressure Humidity
00:00 +5°C° 0 mm 3 mps 758 mmHg 85%
01:00 +5°C° 0 mm 3 mps 758 mmHg 86%
02:00 +5°C° 0 mm 3 mps 757 mmHg 87%
03:00 +5°C° 0 mm 3 mps 757 mmHg 87%
04:00 +5°C° 0 mm 3 mps 756 mmHg 88%
05:00 +5°C° 0 mm 4 mps 756 mmHg 87%
06:00 +5°C° 0 mm 4 mps 756 mmHg 86%
07:00 +4°C° 0 mm 4 mps 756 mmHg 85%
08:00 +6°C° 0 mm 4 mps 756 mmHg 80%
09:00 +7°C° 0 mm 4 mps 755 mmHg 75%
10:00 +9°C° 0 mm 5 mps 755 mmHg 69%
11:00 +11°C° 0 mm 4 mps 755 mmHg 70%
12:00 +11°C° 0 mm 4 mps 754 mmHg 71%
13:00 +12°C° 0 mm 4 mps 753 mmHg 72%
14:00 +12°C° 0 mm 4 mps 753 mmHg 76%
15:00 +12°C° 0 mm 3 mps 753 mmHg 81%
16:00 +12°C° 0 mm 3 mps 752 mmHg 85%
17:00 +11°C° 0.5 mm 3 mps 752 mmHg 88%
18:00 +11°C° 0.5 mm 3 mps 752 mmHg 91%
19:00 +11°C° 0.5 mm 4 mps 752 mmHg 93%
20:00 +11°C° 0.4 mm 4 mps 752 mmHg 93%
21:00 +11°C° 0.4 mm 4 mps 752 mmHg 93%
22:00 +11°C° 0.4 mm 4 mps 751 mmHg 93%
23:00 +11°C° 0.2 mm 4 mps 751 mmHg 92%

Day after tomorrow, 2 November, Monday

Time Temperature Precipitation Wind Pressure Humidity
00:00 +11°C° 0.2 mm 4 mps 751 mmHg 92%
01:00 +11°C° 0.2 mm 4 mps 751 mmHg 92%
02:00 +11°C° 0.3 mm 4 mps 751 mmHg 92%
03:00 +11°C° 0.3 mm 4 mps 750 mmHg 92%
04:00 +12°C° 0.3 mm 5 mps 750 mmHg 93%
05:00 +12°C° 0 mm 5 mps 751 mmHg 93%
06:00 +12°C° 0 mm 4 mps 751 mmHg 94%
07:00 +12°C° 0 mm 4 mps 751 mmHg 94%
08:00 +12°C° 0 mm 4 mps 751 mmHg 91%
09:00 +13°C° 0 mm 4 mps 752 mmHg 88%
10:00 +13°C° 0 mm 3 mps 752 mmHg 85%
11:00 +13°C° 0 mm 3 mps 752 mmHg 86%
12:00 +13°C° 0 mm 3 mps 752 mmHg 87%
13:00 +13°C° 0 mm 3 mps 752 mmHg 88%
14:00 +13°C° 0.1 mm 3 mps 752 mmHg 90%
15:00 +13°C° 0.1 mm 3 mps 752 mmHg 92%
16:00 +13°C° 0.1 mm 3 mps 752 mmHg 95%
17:00 +13°C° 0 mm 4 mps 752 mmHg 94%
18:00 +13°C° 0 mm 4 mps 752 mmHg 94%
19:00 +13°C° 0 mm 4 mps 752 mmHg 94%
20:00 +14°C° 0 mm 4 mps 752 mmHg 93%
21:00 +14°C° 0 mm 4 mps 752 mmHg 93%
22:00 +14°C° 0 mm 4 mps 753 mmHg 92%
23:00 +14°C° 0 mm 4 mps 752 mmHg 92%

3 November, Tuesday

Time Temperature Precipitation Wind Pressure Humidity
00:00 +14°C° 0 mm 4 mps 752 mmHg 92%
01:00 +13°C° 0 mm 4 mps 752 mmHg 91%
02:00 +14°C° 0 mm 3 mps 752 mmHg 91%
03:00 +14°C° 0 mm 3 mps 753 mmHg 90%
04:00 +14°C° 0 mm 3 mps 753 mmHg 89%
05:00 +14°C° 0 mm 3 mps 753 mmHg 90%
06:00 +14°C° 0 mm 3 mps 753 mmHg 91%
07:00 +13°C° 0 mm 3 mps 754 mmHg 92%
08:00 +14°C° 0 mm 4 mps 754 mmHg 89%
09:00 +14°C° 0 mm 5 mps 755 mmHg 86%
10:00 +14°C° 0 mm 6 mps 755 mmHg 83%
11:00 +14°C° 0 mm 6 mps 756 mmHg 77%
12:00 +13°C° 0 mm 6 mps 756 mmHg 72%
13:00 +13°C° 0 mm 5 mps 757 mmHg 66%
14:00 +13°C° 0 mm 5 mps 757 mmHg 68%
15:00 +12°C° 0 mm 4 mps 758 mmHg 69%
16:00 +12°C° 0 mm 3 mps 758 mmHg 70%
17:00 +11°C° 0 mm 3 mps 759 mmHg 72%
18:00 +11°C° 0 mm 3 mps 759 mmHg 73%
19:00 +10°C° 0 mm 3 mps 760 mmHg 74%
20:00 +10°C° 0 mm 3 mps 760 mmHg 75%
21:00 +9°C° 0 mm 2 mps 760 mmHg 75%
22:00 +9°C° 0 mm 2 mps 761 mmHg 76%
23:00 +9°C° 0 mm 2 mps 761 mmHg 76%

4 November, Wednesday

Time Temperature Precipitation Wind Pressure Humidity
00:00 +9°C° 0 mm 2 mps 761 mmHg 77%
01:00 +9°C° 0 mm 2 mps 761 mmHg 77%
02:00 +9°C° 0 mm 2 mps 761 mmHg 78%
03:00 +9°C° 0 mm 2 mps 761 mmHg 79%
04:00 +9°C° 0 mm 2 mps 761 mmHg 79%
05:00 +8°C° 0 mm 2 mps 761 mmHg 79%
06:00 +8°C° 0 mm 2 mps 761 mmHg 78%
07:00 +8°C° 0 mm 2 mps 762 mmHg 78%
08:00 +9°C° 0 mm 3 mps 762 mmHg 73%
09:00 +10°C° 0 mm 3 mps 762 mmHg 69%
10:00 +10°C° 0 mm 4 mps 762 mmHg 64%
11:00 +11°C° 0 mm 4 mps 762 mmHg 62%
12:00 +11°C° 0 mm 3 mps 762 mmHg 60%
13:00 +11°C° 0 mm 3 mps 762 mmHg 58%
14:00 +10°C° 0 mm 3 mps 762 mmHg 61%
15:00 +10°C° 0 mm 2 mps 762 mmHg 64%
16:00 +10°C° 0 mm 1 mps 763 mmHg 68%
17:00 +9°C° 0 mm 1 mps 763 mmHg 70%
18:00 +9°C° 0 mm 1 mps 763 mmHg 72%
19:00 +7°C° 0 mm 0 mps 764 mmHg 74%
20:00 +7°C° 0 mm 0 mps 764 mmHg 75%
21:00 +7°C° 0 mm 0 mps 764 mmHg 76%
22:00 +7°C° 0 mm 1 mps 764 mmHg 77%
23:00 +7°C° 0 mm 1 mps 764 mmHg 79%

5 November, Thursday

Time Temperature Precipitation Wind Pressure Humidity
00:00 +7°C° 0 mm 1 mps 765 mmHg 80%
01:00 +6°C° 0 mm 1 mps 765 mmHg 82%
02:00 +6°C° 0 mm 1 mps 765 mmHg 82%
03:00 +6°C° 0 mm 1 mps 765 mmHg 83%
04:00 +6°C° 0 mm 1 mps 765 mmHg 83%
05:00 +6°C° 0 mm 1 mps 765 mmHg 83%
06:00 +6°C° 0 mm 1 mps 766 mmHg 83%
07:00 +6°C° 0 mm 1 mps 766 mmHg 83%
08:00 +7°C° 0 mm 1 mps 766 mmHg 79%
09:00 +8°C° 0 mm 1 mps 766 mmHg 75%
10:00 +9°C° 0 mm 1 mps 767 mmHg 71%
11:00 +10°C° 0 mm 1 mps 767 mmHg 67%
12:00 +10°C° 0 mm 1 mps 767 mmHg 64%
13:00 +11°C° 0 mm 1 mps 767 mmHg 60%
14:00 +10°C° 0 mm 1 mps 767 mmHg 63%
15:00 +10°C° 0 mm 1 mps 767 mmHg 66%
16:00 +8°C° 0 mm 2 mps 767 mmHg 69%
17:00 +8°C° 0 mm 1 mps 767 mmHg 72%
18:00 +7°C° 0 mm 1 mps 767 mmHg 75%
19:00 +7°C° 0 mm 1 mps 767 mmHg 78%
20:00 +6°C° 0 mm 1 mps 768 mmHg 80%
21:00 +5°C° 0 mm 2 mps 768 mmHg 82%
22:00 +5°C° 0 mm 2 mps 768 mmHg 84%
23:00 +4°C° 0 mm 2 mps 768 mmHg 86%
Show more